Hourly Weather Bolshie Kibyachi

Today, 20 June, Sunday

Time Temperature Precipitation Wind Pressure Humidity
00:00 +19°C° 0 mm 5 mps 753 mmHg 86%
01:00 +19°C° 0 mm 4 mps 753 mmHg 88%
02:00 +18°C° 0 mm 4 mps 754 mmHg 89%
03:00 +18°C° 0 mm 4 mps 754 mmHg 90%
04:00 +19°C° 0 mm 4 mps 754 mmHg 86%
05:00 +20°C° 0 mm 3 mps 754 mmHg 83%
06:00 +21°C° 0 mm 3 mps 754 mmHg 79%
07:00 +24°C° 0 mm 3 mps 754 mmHg 75%
08:00 +25°C° 0 mm 3 mps 754 mmHg 70%
09:00 +27°C° 0 mm 3 mps 754 mmHg 66%
10:00 +28°C° 0 mm 4 mps 754 mmHg 64%
11:00 +28°C° 0 mm 4 mps 754 mmHg 61%
12:00 +29°C° 0 mm 4 mps 754 mmHg 59%
13:00 +29°C° 0.2 mm 4 mps 755 mmHg 60%
14:00 +29°C° 0.2 mm 4 mps 755 mmHg 60%
15:00 +29°C° 0.2 mm 4 mps 755 mmHg 61%
16:00 +28°C° 0 mm 3 mps 755 mmHg 64%
17:00 +27°C° 0 mm 3 mps 755 mmHg 68%
18:00 +26°C° 0 mm 3 mps 755 mmHg 72%
19:00 +25°C° 0 mm 3 mps 755 mmHg 73%
20:00 +22°C° 0 mm 3 mps 755 mmHg 74%
21:00 +20°C° 0 mm 3 mps 755 mmHg 75%
22:00 +20°C° 0 mm 3 mps 755 mmHg 71%
23:00 +19°C° 0 mm 3 mps 755 mmHg 67%

Tomorrow, 21 June, Monday

Time Temperature Precipitation Wind Pressure Humidity
00:00 +19°C° 0 mm 3 mps 755 mmHg 63%
01:00 +19°C° 0 mm 3 mps 756 mmHg 62%
02:00 +19°C° 0 mm 2 mps 756 mmHg 61%
03:00 +19°C° 0 mm 2 mps 756 mmHg 60%
04:00 +19°C° 0.3 mm 2 mps 756 mmHg 68%
05:00 +20°C° 0.3 mm 2 mps 756 mmHg 75%
06:00 +20°C° 0.3 mm 2 mps 756 mmHg 82%
07:00 +23°C° 0.2 mm 2 mps 756 mmHg 79%
08:00 +25°C° 0.2 mm 2 mps 756 mmHg 76%
09:00 +27°C° 0.2 mm 3 mps 756 mmHg 74%
10:00 +28°C° 0.4 mm 3 mps 755 mmHg 67%
11:00 +29°C° 0.4 mm 3 mps 755 mmHg 61%
12:00 +30°C° 0.4 mm 4 mps 755 mmHg 54%
13:00 +30°C° 0 mm 4 mps 755 mmHg 55%
14:00 +30°C° 0 mm 4 mps 755 mmHg 56%
15:00 +30°C° 0 mm 4 mps 755 mmHg 57%
16:00 +29°C° 0.1 mm 4 mps 755 mmHg 63%
17:00 +28°C° 0.1 mm 3 mps 754 mmHg 68%
18:00 +28°C° 0.1 mm 3 mps 754 mmHg 74%
19:00 +26°C° 0.1 mm 3 mps 754 mmHg 78%
20:00 +25°C° 0.1 mm 3 mps 754 mmHg 81%
21:00 +22°C° 0.1 mm 3 mps 755 mmHg 85%
22:00 +22°C° 0 mm 3 mps 755 mmHg 86%
23:00 +22°C° 0 mm 3 mps 755 mmHg 88%

Day after tomorrow, 22 June, Tuesday

Time Temperature Precipitation Wind Pressure Humidity
00:00 +21°C° 0 mm 3 mps 755 mmHg 89%
01:00 +21°C° 0 mm 3 mps 755 mmHg 90%
02:00 +21°C° 0 mm 3 mps 755 mmHg 91%
03:00 +21°C° 0 mm 3 mps 755 mmHg 92%
04:00 +22°C° 0 mm 3 mps 755 mmHg 89%
05:00 +24°C° 0 mm 3 mps 755 mmHg 86%
06:00 +25°C° 0 mm 3 mps 755 mmHg 82%
07:00 +26°C° 0 mm 3 mps 755 mmHg 76%
08:00 +28°C° 0 mm 3 mps 755 mmHg 69%
09:00 +29°C° 0 mm 3 mps 755 mmHg 63%
10:00 +30°C° 0 mm 4 mps 755 mmHg 59%
11:00 +32°C° 0 mm 4 mps 755 mmHg 55%
12:00 +33°C° 0 mm 4 mps 755 mmHg 52%
13:00 +33°C° 0 mm 4 mps 755 mmHg 52%
14:00 +33°C° 0 mm 3 mps 755 mmHg 52%
15:00 +33°C° 0 mm 3 mps 755 mmHg 52%
16:00 +31°C° 0 mm 3 mps 755 mmHg 58%
17:00 +30°C° 0 mm 3 mps 755 mmHg 65%
18:00 +28°C° 0 mm 3 mps 755 mmHg 71%
19:00 +27°C° 0 mm 3 mps 755 mmHg 74%
20:00 +26°C° 0 mm 3 mps 755 mmHg 77%
21:00 +24°C° 0 mm 3 mps 755 mmHg 80%
22:00 +24°C° 0 mm 3 mps 755 mmHg 81%
23:00 +23°C° 0 mm 2 mps 754 mmHg 82%

23 June, Wednesday

Time Temperature Precipitation Wind Pressure Humidity
00:00 +23°C° 0 mm 2 mps 754 mmHg 82%
01:00 +21°C° 0 mm 2 mps 754 mmHg 84%
02:00 +21°C° 0 mm 2 mps 755 mmHg 86%
03:00 +20°C° 0 mm 2 mps 755 mmHg 88%
04:00 +22°C° 0 mm 3 mps 755 mmHg 85%
05:00 +24°C° 0 mm 3 mps 754 mmHg 83%
06:00 +25°C° 0 mm 3 mps 754 mmHg 80%
07:00 +26°C° 0 mm 3 mps 754 mmHg 74%
08:00 +28°C° 0 mm 3 mps 755 mmHg 68%
09:00 +29°C° 0 mm 4 mps 755 mmHg 62%
10:00 +30°C° 0 mm 4 mps 754 mmHg 58%
11:00 +32°C° 0 mm 4 mps 754 mmHg 54%
12:00 +32°C° 0 mm 4 mps 754 mmHg 50%
13:00 +33°C° 0 mm 4 mps 754 mmHg 50%
14:00 +33°C° 0 mm 4 mps 754 mmHg 49%
15:00 +33°C° 0 mm 3 mps 754 mmHg 49%
16:00 +31°C° 0 mm 3 mps 753 mmHg 54%
17:00 +30°C° 0 mm 3 mps 753 mmHg 60%
18:00 +30°C° 0 mm 2 mps 753 mmHg 66%
19:00 +28°C° 0 mm 2 mps 753 mmHg 70%
20:00 +26°C° 0 mm 2 mps 753 mmHg 75%
21:00 +24°C° 0 mm 2 mps 753 mmHg 80%
22:00 +23°C° 0.1 mm 2 mps 753 mmHg 81%
23:00 +23°C° 0.1 mm 2 mps 753 mmHg 82%

24 June, Thursday

Time Temperature Precipitation Wind Pressure Humidity
00:00 +23°C° 0.1 mm 2 mps 753 mmHg 83%
01:00 +21°C° 0.1 mm 2 mps 753 mmHg 83%
02:00 +21°C° 0.1 mm 2 mps 753 mmHg 83%
03:00 +21°C° 0.1 mm 3 mps 753 mmHg 83%
04:00 +23°C° 0 mm 2 mps 753 mmHg 81%
05:00 +24°C° 0 mm 2 mps 753 mmHg 78%
06:00 +25°C° 0 mm 2 mps 753 mmHg 76%
07:00 +26°C° 0 mm 2 mps 752 mmHg 71%
08:00 +27°C° 0 mm 3 mps 752 mmHg 66%
09:00 +29°C° 0 mm 3 mps 752 mmHg 61%
10:00 +30°C° 0 mm 4 mps 752 mmHg 58%
11:00 +32°C° 0 mm 4 mps 752 mmHg 56%
12:00 +33°C° 0 mm 4 mps 752 mmHg 53%
13:00 +33°C° 0 mm 4 mps 752 mmHg 53%
14:00 +34°C° 0 mm 4 mps 752 mmHg 52%
15:00 +34°C° 0 mm 4 mps 752 mmHg 52%
16:00 +29°C° 1.9 mm 5 mps 752 mmHg 64%
17:00 +24°C° 1.9 mm 6 mps 752 mmHg 77%
18:00 +20°C° 1.9 mm 8 mps 752 mmHg 90%
19:00 +21°C° 0.4 mm 6 mps 751 mmHg 86%
20:00 +21°C° 0.4 mm 4 mps 751 mmHg 81%
21:00 +23°C° 0.4 mm 2 mps 750 mmHg 77%
22:00 +23°C° 0.2 mm 2 mps 750 mmHg 81%
23:00 +21°C° 0.2 mm 2 mps 750 mmHg 84%

25 June, Friday

Time Temperature Precipitation Wind Pressure Humidity
00:00 +20°C° 0.2 mm 2 mps 750 mmHg 88%
01:00 +20°C° 0.6 mm 2 mps 750 mmHg 89%
02:00 +20°C° 0.6 mm 2 mps 750 mmHg 90%
03:00 +21°C° 0.6 mm 1 mps 749 mmHg 91%
04:00 +21°C° 0 mm 2 mps 750 mmHg 89%
05:00 +22°C° 0 mm 3 mps 750 mmHg 88%
06:00 +23°C° 0 mm 4 mps 750 mmHg 86%
07:00 +25°C° 0 mm 4 mps 750 mmHg 79%
08:00 +26°C° 0 mm 5 mps 750 mmHg 72%
09:00 +27°C° 0 mm 5 mps 750 mmHg 65%
10:00 +28°C° 0 mm 5 mps 750 mmHg 62%
11:00 +29°C° 0 mm 5 mps 750 mmHg 60%
12:00 +30°C° 0 mm 6 mps 750 mmHg 57%
13:00 +30°C° 0 mm 5 mps 750 mmHg 57%
14:00 +30°C° 0 mm 5 mps 749 mmHg 57%
15:00 +30°C° 0 mm 5 mps 749 mmHg 57%
16:00 +30°C° 0 mm 4 mps 749 mmHg 61%
17:00 +29°C° 0 mm 4 mps 749 mmHg 66%
18:00 +28°C° 0 mm 3 mps 749 mmHg 70%
19:00 +27°C° 0 mm 3 mps 749 mmHg 73%
20:00 +25°C° 0 mm 3 mps 749 mmHg 75%
21:00 +24°C° 0 mm 3 mps 749 mmHg 78%
22:00 +23°C° 0 mm 2 mps 749 mmHg 79%
23:00 +23°C° 0 mm 2 mps 749 mmHg 80%
Show more